Home   Weather   Merida   Past weeks

Flag for Mexico Past Weather in Merida, Yucatán, Mexico — Yesterday and Last 2 Weeks

Now
81 °F

Passing clouds.


Feels Like: 85 °F
Forecast: 75 / 90 °F
Wind: 8 mph from East

Location: Aerop. Internacional Merida - Yuc

Current Time: Jul 23, 2017 at 9:54:43 pm

Latest Report: Jul 23, 2017 at 8:50 pm


Visibility: 7 mi

Pressure: 29.96 "Hg

Humidity: 79%

Dew Point: 73 °F

Location of MeridaLocation

Past Weather in Merida — Graph

°F

Merida Temperature Yesterday

Maximum temperature yesterday: 95 °F (at 1:47 pm)
Minimum temperature yesterday: 75 °F (at 5:47 am)
Average temperature yesterday: 85 °F

High & Low Weather Summary for the Past Weeks

 TemperatureHumidityPressure
High97 °F (Jul 21, 3:44 pm)94% (Jul 9, 4:57 am)30.12 "Hg (Jul 9, 4:57 am)
Low72 °F (Jul 14, 3:48 am)39% (Jul 22, 1:47 pm)29.88 "Hg (Jul 17, 4:47 pm)
Average82 °F77%30.00 "Hg
* Reported Jul 8 7:15 pm — Jul 23 7:51 pm, Merida. Weather by CustomWeather, © 2017

Note: Actual official high and low records may vary slightly from our data, if they occured in-between our weather recording intervals... More about our weather records

Advertising

Merida Weather History for the Previous 24 Hours

Scroll right to see more
 ConditionsComfort  
Time TempWeatherWind HumidityBarometerVisibility
7:51 pm
Sun, Jul 23
81 °FPartly cloudy.9 mph79%29.97 "Hg6 mi
6:43 pm82 °FOvercast.8 mph79%29.96 "Hg6 mi
5:42 pm88 °FMore clouds than sun.12 mph66%29.91 "Hg5 mi
4:45 pm90 °FPartly sunny.12 mph63%29.91 "Hg6 mi
3:42 pm93 °FMostly cloudy.14 mph53%29.98 "Hg6 mi
2:42 pm90 °FPartly sunny.16 mph55%29.95 "Hg6 mi
1:47 pm91 °FMostly cloudy.10 mph56%29.96 "Hg6 mi
12:48 pm90 °FMostly cloudy.18 mph59%29.99 "Hg6 mi
11:45 am90 °FMore clouds than sun.9 mph63%29.99 "Hg6 mi
10:45 am86 °FMore clouds than sun.9 mph70%30.00 "Hg6 mi
9:47 am84 °FMore clouds than sun.7 mph79%30.02 "Hg6 mi
8:45 am82 °FHigh level clouds.5 mph84%29.99 "Hg6 mi
7:44 am79 °FHigh level clouds.8 mph84%29.98 "Hg6 mi
6:45 am77 °FPartly sunny.7 mph89%29.99 "Hg6 mi
5:44 am77 °FPassing clouds.8 mph89%29.95 "Hg7 mi
4:45 am77 °FPassing clouds.6 mph89%29.95 "Hg7 mi
3:48 am77 °FPassing clouds.5 mph89%29.99 "Hg7 mi
2:49 am79 °FPassing clouds.6 mph84%29.97 "Hg7 mi
1:45 am79 °FPassing clouds.13 mph79%30.00 "Hg7 mi
12:43 am81 °FPassing clouds.7 mph74%30.03 "Hg7 mi
11:45 pm
Sat, Jul 22
81 °FPassing clouds.6 mph70%30.03 "Hg7 mi
10:43 pm82 °FPassing clouds.10 mph62%30.02 "Hg7 mi
9:45 pm82 °FPassing clouds.10 mph62%30.00 "Hg7 mi
Weather by CustomWeather, © 2017

See weather overviewHow to use our weather pages